Home > Weather > Greater Sudbury > Past weeks

Flag for Canada Past Weather in Greater Sudbury, Ontario, Canada — Yesterday and Last 2 Weeks

Now
52 °F

Passing clouds.


Feels Like: 51 °F
Forecast: 51 / 74 °F
Wind: 3 mph from Northwest

Location: Sudbury

Current Time: Jul 2, 2016 at 12:06:59 AM

Latest Report: Jul 1, 2016 at 11:00 PM


Visibility: 15 mi

Pressure: 29.97 "Hg

Humidity: 88%

Dew Point: 48 °F

Location of Greater SudburyLocation

Past Weather in Greater Sudbury — Graph

°F

Greater Sudbury Temperature Yesterday

Maximum temperature yesterday: 61 °F (at 2:00 AM)
Minimum temperature yesterday: 54 °F (at 10:00 PM)
Average temperature yesterday: 58 °F

High & Low Weather Summary for the Past Weeks

 TemperatureHumidityPressure
High88 °F (Jun 18, 2:00 PM)100% (Jun 22, 3:00 AM)30.19 "Hg (Jun 22, 3:00 AM)
Low45 °F (Jun 22, 5:00 AM)18% (Jun 17, 3:00 PM)29.67 "Hg (Jun 20, 3:00 PM)
Average66 °F59%29.96 "Hg
* Reported Jun 16 10:00 PM — Jul 1 10:00 PM, Greater Sudbury, Weather by CustomWeather, © 2016

Note: Actual official high and low records may vary slightly from our data, if they occured in-between our weather recording intervals... More about our weather records

Advertising

Greater Sudbury Weather History for the Previous 24 Hours

Scroll right to see more
 ConditionsComfort  
Time TempWeatherWind HumidityBarometerVisibility
10:00 PM
Fri, Jul 1
54 °FPassing clouds.7 mph82%29.95 "Hg20 mi
9:00 PM57 °FBroken clouds.8 mph77%29.93 "Hg20 mi
8:00 PM59 °FBroken clouds.10 mph68%29.92 "Hg20 mi
7:00 PM61 °FPartly sunny.13 mph68%29.91 "Hg20 mi
6:00 PM61 °FPartly sunny.13 mph72%29.89 "Hg20 mi
5:00 PM59 °FBroken clouds.8 mph77%29.89 "Hg20 mi
4:00 PM57 °FPartly sunny.14 mph82%29.89 "Hg20 mi
3:49 PM55 °FBroken clouds.15 mph88%29.89 "Hg20 mi
3:00 PM55 °FSprinkles. Mostly cloudy.13 mph94%29.88 "Hg15 mi
2:00 PM55 °FSprinkles. Mostly cloudy.12 mph94%29.86 "Hg15 mi
1:00 PM57 °FSprinkles. Fog.13 mph94%29.86 "Hg6 mi
12:00 PM59 °FSprinkles. More clouds than sun.7 mph88%29.86 "Hg8 mi
11:00 AM59 °FSprinkles. More clouds than sun.5 mph94%29.85 "Hg10 mi
10:00 AM59 °FSprinkles. More clouds than sun.6 mph94%29.85 "Hg8 mi
9:00 AM59 °FSprinkles. Mostly cloudy.2 mph94%29.86 "Hg8 mi
8:00 AM59 °FSprinkles. Mostly cloudy.5 mph94%29.84 "Hg8 mi
7:00 AM57 °FSprinkles. Low clouds.6 mph100%29.83 "Hg12 mi
6:00 AM57 °FSprinkles. Mostly cloudy.8 mph94%29.84 "Hg15 mi
5:00 AM55 °FSprinkles. Mostly cloudy.7 mph88%29.85 "Hg15 mi
4:00 AM59 °FPassing clouds.6 mph68%29.85 "Hg15 mi
3:00 AM59 °FPassing clouds.5 mph63%29.85 "Hg15 mi
2:00 AM61 °FPassing clouds.2 mph59%29.85 "Hg15 mi
1:00 AM59 °FPassing clouds.5 mph59%29.88 "Hg15 mi
12:00 AM59 °FPassing clouds.6 mph55%29.89 "Hg15 mi
Weather by CustomWeather, © 2016

See weather overviewHow to use our weather pages